Location: ????????
(37.6846°N, 24.0673°E)
Time: 14:49:10
(UTC+00:00)

PSLV R/B - Pass Details

Date: 14 July 2020
Orbit: 595 x 628 km, 97.9° (Epoch: 04 August)

Event Time Altitude Azimuth Distance (km) Brightness Sun altitude
Rises 02:04:24 0° 16° (NNE) 2,891 8.0 -12.1°
Reaches altitude 10° 02:06:37 10° 19° (NNE) 1,986 7.1 -11.8°
Maximum altitude 02:10:54 63° 101° (E) 694 4.0 -11.2°
Drops below altitude 10° 02:15:11 10° 183° (S) 1,989 5.8 -10.5°
Enters shadow 02:16:36 - 185° (S) 2,568 6.3 -10.3°
